Regional Weather Roundup
Issued by NWS

Home | Current Version | Previous Version | Text Only | Print | Product List | Glossary Off
Versions: 1 2 3 4 5 6 7 8 9 10 11 12 13 14 15 16 17 18 19 20 21 22 23 24 25 26 27 28 29 30 31 32 33 34 35 36 37 38 39 40 41 42 43 44 45 46 47 48 49 50

000
ASUS45 KABQ 291910
RWRNM
NEW MEXICO REGIONAL WEATHER ROUNDUP
NATIONAL WEATHER SERVICE ALBUQUERQUE NM
100 PM MDT WED JUL 29 2015

NOTE: "FAIR" MEANS FEW OR NO CLOUDS BELOW 12,000 FEET AGL WITH NO
       SIGNIFICANT WEATHER OR OBSTRUCTIONS TO VISION.

      THIS PRODUCT IS RELEASED AS TWO VERSIONS.  ONE VERSION NEAR
      THE TOP OF THE HOUR CONTAINING PRELIMINARY DATA FROM ALBUQUERQUE
      AND OTHER STATIONS.  A FINAL VERSION WITH ADDITIONAL DATA IS
      ISSUED ABOUT 10 MINUTES AFTER THE HOUR.

NMZ501-503-504-510>518-292000-
NORTHWEST PLATEAU/NORTHCENTRAL MOUNTAINS

CITY           SKY/WX    TMP DP  RH WIND       PRES   REMARKS
FARMINGTON     SUNNY     83  46  27 E12       30.27S
LOS ALAMOS     CLOUDY    72  52  49 S7        30.43F
SANTA FE       CLOUDY    73  52  47 S8        30.38S
TAOS           PTSUNNY   75  46  35 SW7       30.42S
ANGEL FIRE     MOCLDY    67  52  57 S8        30.51F

$$
NMZ402-403-502-505>509-292000-
WESTCENTRAL MOUNTAINS/SOUTHWEST MOUNTAINS

CITY           SKY/WX    TMP DP  RH WIND       PRES   REMARKS
GALLUP         CLOUDY    74  52  46 NW7       30.37R
GRANTS         CLOUDY    75  52  45 SE5       30.38F
SILVER CITY      N/A     81  55  41 SE15      30.29S

$$
NMZ407-409-411-412-292000-
SOUTHERN DESERTS

CITY           SKY/WX    TMP DP  RH WIND       PRES   REMARKS
LORDSBURG      FAIR      84  57  39 SE8       30.18F
DEMING         MOSUNNY   84  59  42 SE9       30.21F
LAS CRUCES     MOSUNNY   84  55  36 E7        30.23F
HOLLOMAN AFB   MOSUNNY   88  56  34 VRB6      30.17F
ALAMOGORDO     MOSUNNY   86  57  37 SE7       30.20F
T OR C         PTSUNNY   79  60  52 CALM      30.24F

$$
NMZ519>523-292000-
CENTRAL VALLEYS/CENTRAL HIGHLANDS

CITY           SKY/WX    TMP DP  RH WIND       PRES   REMARKS
ALBUQUERQUE    CLOUDY    79  55  43 VRB7      30.31F
DOUBLE EAGLE   PTSUNNY   73  57  56 N6        30.35S
MORIARTY ARPT    N/A     79  52  38 E9        30.38S
CLINES CORNERS PTSUNNY   72  55  55 E14G20    30.43S
BELEN          FAIR      83  52  34 N5        30.28F
SOCORRO        FAIR      85  51  30 S7        30.23F

$$
NMZ524>526-539-540-292000-
SOUTHCENTRAL MOUNTAINS

CITY           SKY/WX    TMP DP  RH WIND       PRES   REMARKS
RUIDOSO          N/A    N/A N/A N/A MISG        N/A

$$
NMZ527>531-292000-
NORTHEAST HIGHLANDS/NORTHEAST PLAINS

CITY           SKY/WX    TMP DP  RH WIND       PRES   REMARKS
LAS VEGAS      CLOUDY    68  55  63 SE12      30.44S
RATON          CLOUDY    75  52  44 S9        30.38S
CLAYTON        SUNNY     77  55  46 E12G17    30.34F

$$
NMZ532>537-292000-
EASTCENTRAL PLAINS

CITY           SKY/WX    TMP DP  RH WIND       PRES   REMARKS
TUCUMCARI      MOSUNNY   81  63  54 E9G20     30.26S
CANNON AFB     SUNNY     82  62  50 VRB5      30.26F
CLOVIS AIRPORT SUNNY     82  63  51 E8        30.27F

$$
NMZ028-029-538-292000-
SOUTHEAST PLAINS

CITY           SKY/WX    TMP DP  RH WIND       PRES   REMARKS
ROSWELL        SUNNY     89  59  36 CALM      30.19F
ARTESIA        MOSUNNY   90  61  37 N9G15     30.19F
CARLSBAD       SUNNY     92  62  36 N12G20    30.14F
HOBBS          PTSUNNY   91  59  33 E9        30.19F


$$


USA.gov is the U.S. government's official web portal to all federal, state and local government web resources and services.